Regional Weather Roundup
Issued by NWS Cleveland, OH

Home | Current Version | Previous Version | Text Only | Print | Product List | Glossary Off
Versions: 1 2 3 4 5 6 7 8 9 10 11 12 13 14 15 16 17 18 19 20 21 22 23 24 25 26 27 28 29 30 31 32 33 34 35 36 37 38 39 40 41 42 43 44 45 46 47 48 49 50

000
ASUS41 KCLE 261710
RWRCLE
OHIO REGIONAL WEATHER ROUNDUP
NATIONAL WEATHER SERVICE CLEVELAND, OH
1200 PM EST SUN FEB 26 2017

NOTE: "FAIR" INDICATES FEW OR NO CLOUDS BELOW 12,000 FEET WITH NO
SIGNIFICANT WEATHER AND/OR OBSTRUCTIONS TO VISIBILITY.

OHZ001>008-015>018-024>027-034-035-043-044-261800-
   NORTHWEST OHIO

CITY           SKY/WX    TMP DP  RH WIND       PRES   REMARKS
DEFIANCE       MOSUNNY   33  19  56 SW13G22   30.13S WCI  24
FINDLAY        SUNNY     35  20  54 S17       30.14R WCI  25
TOLEDO EXPRESS SUNNY     34  18  52 SW16G22   30.11F WCI  24
TOLEDO EXEC    SUNNY     35  20  54 SW16G24   30.13S WCI  25
LIMA           SUNNY     34  20  56 S12       30.14F WCI  25
$$

OHZ009>014-019>023-028>033-038-089-261800-
   NORTHEAST OHIO

CITY           SKY/WX    TMP DP  RH WIND       PRES   REMARKS
CLE-HOPKINS    MOSUNNY   35  19  52 SW12      30.16F WCI  27
CLE-LAKEFRONT  MOSUNNY   33  17  51 S8        30.13F WCI  26
CUY CO. ARPT   MOSUNNY   32  21  64 SW14      30.13F WCI  22
LORAIN-ELYRIA  SUNNY     31  18  58 SW12      30.15R WCI  22
ASHTABULA      PTSUNNY   30  19  63 W13       30.13S WCI  20
AKRON-CANTON   MOSUNNY   31  17  56 SW14      30.13F WCI  21
WOOSTER        SUNNY     31  18  58 SW14      30.14F WCI  21
MANSFIELD      SUNNY     33  20  58 SW13      30.13R WCI  24
YOUNGSTOWN     PTSUNNY   30  16  56 SW12      30.13S WCI  20
$$

OHZ042-051>053-060>062-070>072-077>081-261800-
  SOUTHWEST OHIO

CITY           SKY/WX    TMP DP  RH WIND       PRES   REMARKS
CINC-COVINGTON SUNNY     37  15  40 S9        30.21F
CINC-LUNKEN    SUNNY     38  18  44 SW8       30.24F
HAMILTON       SUNNY     39  17  41 SW5       30.22F
DAYTON         SUNNY     35  16  45 SW10      30.18F WCI  27
WRIGHT-PAT AFB SUNNY     36  13  39 SW10      30.18F
DAYTON GENERAL SUNNY     35  16  45 S10       30.19S WCI  27
WILMINGTON     SUNNY     35  19  52 S13       30.19S WCI  26
$$

OHZ036-037-039>041-045>050-054>059-063>069-073>076-082>088-261800-
  CENTRAL AND SOUTHEAST OHIO

CITY           SKY/WX    TMP DP  RH WIND       PRES   REMARKS
COLUMBUS       MOSUNNY   37  19  48 SW8       30.19S
OSU AIRPORT    SUNNY     35  19  52 S9G17     30.18R WCI  28
BOLTON FIELD   NOT AVBL
RICKENBACK AFB SUNNY     34  20  55 SW9       30.21S WCI  27
NEWARK         SUNNY     35  19  52 SW9       30.18R WCI  28
MARION         SUNNY     33  17  51 SW14      30.17R WCI  23
LANCASTER      SUNNY     37  20  50 SW10      30.20S
ZANESVILLE     SUNNY     34  16  47 W7        30.19R WCI  28
NEW PHILLY     NOT AVBL
$$




USA.gov is the U.S. government's official web portal to all federal, state and local government web resources and services.